Change the Weather History Date:

Tuesday, August 26, 2014

  Actual Average Record
Temperature  
Mean Temperature 57 °F 59 °F  
Max Temperature 74 °F 79 °F 91 °F (1988)
Min Temperature 40 °F 39 °F 27 °F (1978)
Degree Days  
Heating Degree Days 8 6  
Month to date heating degree days 81 124  
Since 1 June heating degree days 305 572  
Since 1 July heating degree days 95 262  
Cooling Degree Days 0 0  
Month to date cooling degree days 8 7  
Year to date cooling degree days 95 26  
Since 1 June cooling degree days 95 26  
Growing Degree Days 6 (Base 50)    
Moisture  
Dew Point 40 °F    
Average Humidity 55    
Maximum Humidity 89    
Minimum Humidity 20    
Precipitation  
Precipitation 0.00 in - 0.37 in (1973)
Month to date precipitation 1.69  
Year to date precipitation 14.59  
Sea Level Pressure  
Sea Level Pressure 30.11 in    
Wind  
Wind Speed 4 mph (South)    
Max Wind Speed 12 mph    
Max Gust Speed 17 mph    
Visibility 9 miles    
Events      
T = Trace of Precipitation, MM = Missing Value Source: NWS Daily Summary

Daily Weather History Graph

Daily Weather History Graph

Search for Another Location

Airport or City:

Trip Planner

Search our weather history database for the weather conditions in past years. The results will help you decide how hot, cold, wet, or windy it might be!

Date:

Astronomy

Aug. 26, 2014 Rise Set
Actual Time 6:23 AM PDT 7:39 PM PDT
Civil Twilight 5:55 AM PDT 8:06 PM PDT
Nautical Twilight 5:22 AM PDT 8:39 PM PDT
Astronomical Twilight 4:48 AM PDT 9:14 PM PDT
Moon 7:27 AM PDT (8/26) 8:04 PM PDT (8/26)
Length of Visible Light 14h 10m
Length of Day
13h 15m
New Moon, 1% of the Moon is Illuminated
Aug 26
New Moon
Sep 2
First Quarter
Sep 8
Full
Sep 15
Last Quarter
Sep 23
New

Hourly Weather History & Observations

Time (PDT) Temp. Windchill Dew Point Humidity Pressure Visibility Wind Dir Wind Speed Gust Speed Precip Events Conditions
12:13 AM 46.0 °F 42.5 °F 43.0 °F 89% 30.17 in 1.5 mi South 6.9 mph - N/A   Overcast
12:24 AM 46.0 °F 43.9 °F 43.0 °F 89% 30.17 in 3.0 mi South 4.6 mph - N/A   Overcast
12:32 AM 46.0 °F 42.5 °F 43.0 °F 89% 30.17 in 10.0 mi SSW 6.9 mph - N/A   Mostly Cloudy
12:41 AM 46.0 °F 44.8 °F 43.0 °F 89% 30.17 in 10.0 mi South 3.5 mph - N/A   Scattered Clouds
12:53 AM 46.0 °F - 42.1 °F 86% 30.03 in 10.0 mi Calm Calm - N/A   Clear
1:48 AM 44.6 °F 43.1 °F 41.0 °F 87% 30.18 in 2.5 mi South 3.5 mph - N/A   Partly Cloudy
1:58 AM 44.1 °F 42.5 °F 41.0 °F 89% 30.18 in 3.0 mi South 3.5 mph - N/A   Partly Cloudy
2:07 AM 44.1 °F 41.5 °F 39.9 °F 85% 30.18 in 6.0 mi South 4.6 mph - N/A   Partly Cloudy
2:53 AM 44.1 °F - 39.9 °F 85% 30.04 in 10.0 mi Calm Calm - N/A   Clear
3:53 AM 43.0 °F 40.3 °F 39.0 °F 86% 30.05 in 10.0 mi SSE 4.6 mph - N/A   Clear
5:53 AM 41.0 °F 39.0 °F 37.0 °F 86% 30.11 in 10.0 mi South 3.5 mph - N/A   Clear
6:53 AM 39.9 °F 36.7 °F 36.0 °F 86% 30.14 in 10.0 mi South 4.6 mph - N/A   Clear
8:53 AM 54.0 °F - 46.0 °F 75% 30.12 in 10.0 mi Calm Calm - N/A   Clear
9:53 AM 63.0 °F - 45.0 °F 52% 30.10 in 10.0 mi NNE 6.9 mph - N/A   Clear
10:53 AM 66.9 °F - 44.1 °F 44% 30.09 in 10.0 mi Variable 4.6 mph - N/A   Clear
11:53 AM 69.1 °F - 41.0 °F 36% 30.09 in 10.0 mi Variable 4.6 mph - N/A   Clear
12:53 PM 71.1 °F - 39.0 °F 31% 30.08 in 10.0 mi NNE 9.2 mph - N/A   Clear
1:53 PM 73.0 °F - 32.0 °F 22% 30.07 in 10.0 mi Variable 6.9 mph - N/A   Clear
2:53 PM 73.0 °F - 33.1 °F 23% 30.06 in 10.0 mi North 5.8 mph - N/A   Clear
3:53 PM 73.0 °F - 36.0 °F 26% 30.06 in 10.0 mi Variable 5.8 mph 16.1 mph N/A   Clear
4:53 PM 73.0 °F - 30.9 °F 21% 30.06 in 10.0 mi Variable 3.5 mph - N/A   Clear
5:53 PM 72.0 °F - 32.0 °F 23% 30.05 in 10.0 mi Variable 4.6 mph - N/A   Clear
6:53 PM 64.9 °F - 39.9 °F 40% 30.08 in 10.0 mi Calm Calm - N/A   Clear
7:53 PM 60.1 °F - 39.0 °F 46% 30.10 in 10.0 mi Calm Calm - N/A   Clear
8:53 PM 57.0 °F - 41.0 °F 55% 30.11 in 10.0 mi Calm Calm - N/A   Clear
10:53 PM 52.0 °F - 41.0 °F 66% 30.12 in 10.0 mi Calm Calm - N/A   Clear
11:53 PM 51.1 °F - 39.9 °F 66% 30.12 in 10.0 mi SSW 3.5 mph - N/A   Clear